Wind_Speed
11 11 12 13 13 13 15 15 14 15 15 16 16 16 15 16 16 18 19 18 19 20 20 21 23 23 24 24 24 24 24 24 23 23 23 23 23 22 22 22 21 21 20 20
10 11 12 12 12 13 14 14 14 15 15 15 15 15 16 16 17 17 18 18 19 19 19 20 22 22 23 24 24 23 22 22 22 22 21 21 21 20 20 19 19 19 18 18
8 9 9 10 10 11 12 13 13 14 15 15 15 15 16 17 17 17 17 17 17 17 17 19 20 21 22 22 20 19 19 19 19 19 19 18 18 18 18 17 17 16 16 16
7 7 9 8 9 10 11 11 11 12 13 15 15 14 15 15 16 16 16 16 16 17 17 17 18 18 18 18 17 17 16 16 16 16 16 15 15 14 14 14 13 13 13 13
6 6 7 7 7 8 10 10 10 11 12 12 12 13 13 13 14 14 14 14 14 14 15 15 15 15 15 14 14 14 13 13 12 12 12 12 12 11 11 11 11 11 11 11
4 5 6 6 6 7 8 8 9 10 10 10 10 10 11 11 12 11 11 11 12 12 13 13 12 12 11 11 11 11 11 11 10 10 9 9 10 10 10 10 10 9 8 8
3 4 5 5 5 6 6 7 8 8 8 9 9 9 10 10 10 9 10 10 11 11 11 11 11 10 10 10 9 9 9 9 9 9 8 8 8 7 7 7 7 6 5 5
3 3 4 3 4 4 5 6 6 6 7 7 7 7 8 8 8 8 8 9 9 9 9 9 9 9 9 8 8 8 8 8 7 7 7 6 6 6 5 4 4 3 3 3
3 3 3 3 4 4 5 5 5 5 5 5 5 6 6 6 6 6 6 7 7 7 7 8 8 8 7 7 7 6 6 6 5 4 4 4 3 3 3 2 2 2 2 3
3 3 3 4 4 4 4 4 4 4 5 6 6 6 6 6 5 6 6 7 6 7 7 6 6 6 6 6 6 5 5 4 4 4 3 2 2 2 2 2 2 3 4 4
2 3 3 3 3 3 3 3 3 4 5 6 6 6 6 6 5 5 6 6 5 6 6 6 6 6 6 6 5 5 4 4 5 5 4 5 5 5 4 4 4 5 6 6
3 3 4 4 4 3 3 3 4 5 5 5 5 6 6 5 5 5 6 5 5 5 5 6 5 6 6 6 6 6 5 5 5 6 6 6 6 6 6 6 6 7 8 8
3 4 4 5 4 4 4 4 5 5 5 5 5 5 5 5 5 6 6 5 5 5 5 5 5 6 6 6 6 6 6 6 6 7 7 7 8 8 9 9 9 9 10 10
3 4 5 5 5 5 5 4 4 4 4 4 5 5 5 5 5 6 6 6 5 5 6 6 6 7 7 7 7 7 7 7 7 8 8 9 9 9 10 10 11 11 12 11
3 4 5 6 6 6 5 4 4 4 5 5 5 5 5 6 6 6 6 6 6 6 6 7 7 8 8 8 8 9 9 9 9 9 9 9 9 10 10 11 12 12 12 12
4 5 6 6 6 5 4 4 4 4 4 5 6 6 6 6 6 6 6 6 7 7 7 7 7 8 8 8 9 9 9 10 9 9 9 9 10 10 11 11 11 11 12 12
4 5 6 6 5 5 4 4 4 4 5 5 6 7 7 7 7 7 7 6 6 7 7 7 7 7 8 8 8 8 9 9 9 10 10 10 10 11 11 10 10 10 11 10
4 5 5 5 5 5 4 4 4 4 4 5 6 6 7 7 7 7 7 7 6 6 6 6 6 6 6 7 7 8 8 8 9 9 9 9 9 9 9 10 10 10 10 9
3 4 5 5 5 4 4 3 3 3 3 4 5 5 6 6 6 7 7 6 6 6 5 5 5 6 6 6 6 6 6 7 7 8 8 8 8 9 9 9 9 9 9 9
2 4 5 5 5 4 4 3 3 3 3 3 3 4 5 5 6 6 6 5 6 5 5 5 5 5 5 5 5 5 5 6 6 6 7 7 7 7 7 7 7 7 7 7
2 3 4 4 4 4 4 3 3 3 3 3 3 3 4 4 4 4 5 4 4 4 4 4 3 4 3 3 4 4 4 4 4 5 5 5 5 5 6 5 5 5 5 5
2 2 3 4 4 4 3 3 3 3 3 2 2 2 3 3 4 4 4 4 4 3 3 3 3 2 2 3 3 2 2 2 3 3 3 3 3 3 3 3 3 3 3 3
2 2 3 3 3 3 3 3 2 2 3 3 2 2 3 3 3 3 3 4 3 3 2 2 2 1 1 1 1 1 1 1 2 2 2 2 2 2 2 2 2 2 2 2
2 2 2 2 2 2 2 2 2 2 3 3 3 3 3 3 3 3 3 3 3 3 3 2 2 2 1 1 2 2 2 2 2 3 3 3 3 3 3 3 4 4 4 4
3 3 3 2 2 2 2 3 3 3 3 4 4 4 4 4 4 4 4 4 4 4 4 3 3 3 3 4 4 4 5 5 5 6 6 6 6 6 6 6 6 7 7 8
4 4 4 4 4 4 4 4 4 4 5 5 5 5 5 6 6 6 6 6 6 6 6 6 5 5 6 6 7 7 7 8 8 9 9 9 9 10 10 10 11 11 11 12
6 6 6 6 6 6 6 6 6 6 7 7 7 8 8 8 8 8 8 8 8 8 9 8 8 8 8 8 9 9 9 10 11 12 12 13 13 14 15 15 16 16 16 16
Wind_Direction
238 237 237 242 246 249 250 253 257 263 265 269 272 277 281 284 285 286 287 287 286 286 284 282 279 278 278 278 278 278 279 279 279 280 279 280 281 281 281 280 280 279 277 277
244 245 244 247 251 252 253 258 261 264 268 272 275 279 281 283 287 288 289 286 288 288 286 284 282 280 281 281 278 279 279 279 279 281 282 280 281 281 282 281 279 277 275 276
245 249 251 252 254 254 256 260 264 269 272 275 277 281 283 283 285 287 288 289 291 292 290 288 286 284 283 284 282 281 280 279 281 283 283 284 283 282 281 279 278 277 276 275
248 250 254 262 259 262 262 266 270 271 274 278 281 281 285 286 287 292 293 290 290 292 292 295 297 294 288 284 281 280 282 284 285 288 288 285 284 282 281 280 277 276 275 274
249 257 263 268 274 275 269 272 275 278 281 282 284 285 288 291 293 295 295 293 294 297 297 298 300 297 291 285 284 285 285 287 289 291 289 285 284 282 281 277 274 273 270 269
248 255 266 277 283 286 281 276 281 286 290 291 291 290 295 295 298 297 297 300 302 305 307 308 307 306 300 296 295 293 293 295 296 296 292 285 283 281 275 272 269 268 262 261
266 262 274 283 289 291 291 292 290 291 295 297 298 299 304 305 305 302 302 305 308 309 311 315 317 315 311 306 306 305 304 303 300 299 297 293 284 282 278 270 264 258 250 243
281 281 281 287 299 294 300 302 299 298 300 301 306 312 315 315 313 309 309 312 316 318 319 320 321 320 320 316 313 312 312 310 303 299 295 295 290 279 266 253 247 234 214 211
301 299 287 296 310 311 314 313 314 316 321 322 320 322 327 325 324 325 323 326 328 330 328 325 328 329 332 332 330 330 330 325 323 322 311 299 293 274 251 232 218 202 185 173
324 314 304 304 311 312 318 321 326 334 341 345 343 340 338 338 340 342 340 341 346 347 345 350 354 358 360 356 352 350 356 7 15 24 29 37 41 65 95 125 144 158 149 140
348 340 337 337 335 330 319 316 329 340 343 346 348 351 350 350 354 357 359 2 360 4 6 6 8 9 10 14 14 22 40 47 50 52 61 62 66 75 89 101 114 130 135 133
8 4 360 1 7 14 9 352 350 349 345 349 353 357 2 4 9 5 7 11 11 16 16 18 21 19 23 27 33 46 59 61 61 63 70 73 78 83 89 102 110 122 126 126
16 15 10 9 14 12 7 360 358 356 354 358 5 8 13 14 15 16 20 24 26 27 28 32 38 37 38 44 51 56 59 62 67 73 78 81 84 89 94 100 108 116 118 120
24 17 15 13 10 4 2 4 5 4 7 12 18 21 21 22 27 33 34 36 40 41 41 46 49 49 53 58 63 66 67 70 76 79 84 89 92 93 94 97 104 110 114 115
19 10 6 5 6 9 14 21 25 27 28 27 28 32 32 35 39 41 45 55 54 53 57 59 59 60 62 67 68 73 75 78 81 84 85 90 95 97 100 103 106 109 110 111
12 8 7 7 8 12 20 32 34 38 38 36 37 41 42 43 45 47 53 62 62 64 68 67 67 69 71 70 74 78 80 79 82 85 87 90 95 100 103 106 108 110 110 112
13 14 14 14 17 25 35 42 40 43 49 48 48 47 44 42 41 45 51 60 63 66 71 72 74 78 74 75 81 83 81 82 85 88 92 94 96 99 103 106 110 110 111 112
20 21 18 18 22 29 41 46 47 53 55 51 48 46 42 42 44 45 51 55 62 68 71 73 75 74 73 78 84 85 85 87 88 90 93 95 96 97 100 105 108 111 112 112
23 22 20 21 25 29 34 41 44 48 50 47 43 40 40 43 45 46 50 56 61 65 65 67 70 73 78 84 86 87 89 90 90 90 95 99 99 100 102 105 109 113 114 114
18 19 23 27 28 29 32 35 35 35 33 32 33 32 37 43 47 47 49 54 55 54 54 58 67 78 83 83 86 90 94 94 92 93 98 102 105 108 110 111 113 115 118 119
14 15 17 19 21 23 23 22 24 27 22 20 24 25 27 32 37 39 41 44 45 45 45 50 61 72 80 84 89 95 98 99 99 101 105 110 113 117 120 121 121 122 123 124
337 350 357 3 9 15 16 17 21 26 24 21 19 16 16 22 23 23 24 26 30 34 36 40 47 62 78 92 100 104 107 110 110 108 116 125 131 136 139 139 141 143 144 144
301 321 337 348 356 360 1 1 1 6 7 7 5 358 357 360 4 10 13 13 12 10 9 16 24 25 49 111 127 134 132 137 147 152 157 165 172 179 184 185 190 202 213 217
280 302 323 335 349 357 357 357 355 352 350 351 346 336 333 333 336 340 345 348 350 348 340 329 325 319 290 258 244 237 230 228 227 227 229 229 229 231 233 235 239 245 249 255
282 290 299 314 329 339 340 339 336 334 333 331 330 327 322 317 314 314 314 316 317 317 314 308 301 293 282 273 270 266 263 260 257 254 253 251 251 253 254 256 259 261 261 264
273 280 284 286 294 302 306 309 309 309 312 313 315 314 312 309 306 304 300 297 297 297 297 294 291 288 284 279 275 272 271 268 265 262 260 259 260 261 262 264 266 267 267 269
268 273 277 279 282 287 291 295 297 297 298 300 302 304 302 300 299 297 295 291 286 284 285 286 287 286 284 282 279 276 273 272 270 268 267 267 267 267 267 268 269 270 270 272
Height
5800 5800 5801 5802 5803 5804 5804 5805 5805 5805 5804 5803 5802 5801 5800 5799 5797 5796 5794 5792 5790 5787 5785 5784 5782 5780 5778 5776 5775 5773 5772 5770 5769 5768 5767 5765 5764 5763 5762 5761 5759 5758 5758 5757
5797 5797 5798 5799 5799 5800 5800 5800 5800 5800 5800 5798 5797 5796 5795 5794 5792 5790 5789 5786 5784 5782 5779 5777 5775 5773 5771 5769 5768 5766 5765 5764 5763 5762 5760 5759 5758 5757 5756 5755 5754 5753 5753 5752
5795 5795 5795 5796 5796 5796 5796 5796 5796 5796 5796 5794 5793 5792 5790 5789 5787 5785 5783 5781 5779 5776 5774 5772 5770 5767 5765 5763 5762 5760 5759 5758 5757 5756 5755 5753 5752 5751 5750 5749 5749 5748 5748 5747
5793 5794 5793 5795 5793 5793 5792 5792 5792 5791 5790 5790 5788 5787 5786 5784 5782 5780 5778 5776 5774 5772 5769 5767 5765 5762 5760 5758 5757 5755 5754 5753 5752 5751 5750 5748 5748 5746 5746 5745 5744 5744 5744 5743
5791 5791 5791 5792 5790 5790 5789 5789 5788 5787 5786 5785 5784 5783 5781 5779 5778 5776 5773 5771 5769 5767 5765 5763 5761 5758 5756 5754 5752 5751 5750 5749 5748 5747 5746 5745 5744 5743 5742 5741 5741 5741 5740 5740
5789 5789 5790 5790 5788 5787 5787 5786 5785 5784 5783 5782 5780 5779 5778 5776 5774 5771 5769 5768 5766 5764 5762 5759 5757 5755 5752 5750 5749 5748 5747 5746 5744 5743 5742 5741 5740 5739 5739 5738 5738 5738 5738 5738
5788 5788 5787 5787 5786 5786 5786 5785 5782 5781 5780 5779 5777 5777 5775 5772 5770 5768 5767 5765 5763 5761 5759 5756 5754 5752 5750 5748 5747 5745 5744 5743 5742 5741 5740 5739 5738 5737 5736 5736 5736 5736 5736 5736
5787 5786 5788 5785 5784 5784 5783 5781 5780 5779 5778 5776 5775 5773 5772 5770 5768 5766 5764 5763 5761 5758 5756 5754 5752 5750 5748 5746 5745 5743 5742 5741 5739 5738 5737 5736 5736 5735 5734 5734 5735 5735 5735 5735
5786 5787 5785 5783 5783 5782 5780 5779 5778 5777 5776 5775 5773 5772 5770 5768 5766 5764 5763 5761 5759 5757 5754 5752 5750 5748 5746 5745 5743 5742 5740 5739 5738 5737 5736 5735 5734 5733 5733 5733 5734 5734 5734 5735
5784 5783 5782 5782 5781 5780 5779 5778 5777 5776 5775 5773 5772 5770 5769 5767 5765 5763 5761 5759 5757 5755 5753 5751 5749 5748 5746 5744 5743 5741 5740 5738 5737 5736 5736 5735 5734 5733 5733 5733 5734 5734 5735 5735
5783 5782 5781 5780 5779 5778 5777 5776 5776 5775 5774 5772 5771 5769 5768 5766 5764 5762 5760 5758 5757 5755 5753 5751 5749 5748 5746 5744 5743 5741 5740 5739 5738 5737 5736 5735 5735 5734 5734 5734 5735 5735 5736 5737
5783 5782 5781 5779 5778 5777 5776 5775 5774 5773 5772 5771 5770 5768 5767 5765 5764 5762 5760 5758 5756 5755 5753 5752 5750 5748 5746 5745 5744 5742 5741 5740 5739 5738 5738 5737 5737 5736 5736 5736 5736 5737 5738 5739
5782 5781 5780 5779 5777 5776 5775 5774 5773 5772 5771 5770 5769 5767 5766 5765 5763 5761 5760 5758 5756 5755 5754 5752 5751 5749 5748 5746 5745 5744 5743 5742 5741 5740 5740 5739 5739 5739 5738 5739 5739 5740 5740 5741
5782 5781 5780 5778 5777 5775 5774 5773 5772 5771 5770 5769 5768 5767 5766 5764 5763 5761 5760 5758 5757 5755 5754 5753 5752 5751 5749 5748 5747 5746 5745 5744 5743 5743 5742 5742 5742 5742 5741 5741 5742 5743 5743 5744
5781 5780 5779 5778 5776 5775 5773 5772 5771 5771 5770 5769 5768 5767 5766 5764 5763 5762 5760 5759 5758 5757 5756 5755 5754 5752 5751 5750 5749 5748 5748 5747 5746 5746 5745 5745 5745 5745 5745 5745 5745 5746 5747 5747
5781 5780 5779 5777 5776 5774 5773 5772 5771 5771 5770 5769 5768 5767 5766 5765 5764 5762 5761 5760 5759 5758 5757 5756 5756 5755 5754 5753 5752 5751 5751 5750 5749 5749 5749 5748 5748 5748 5748 5749 5749 5750 5750 5751
5780 5779 5778 5777 5776 5774 5773 5772 5772 5771 5770 5770 5769 5768 5767 5766 5765 5764 5762 5761 5761 5760 5759 5759 5758 5757 5756 5755 5755 5754 5754 5753 5753 5752 5752 5752 5752 5752 5752 5752 5752 5753 5754 5754
5780 5779 5778 5777 5776 5775 5774 5773 5772 5772 5771 5771 5770 5769 5768 5767 5766 5765 5764 5763 5762 5762 5761 5760 5760 5759 5759 5758 5757 5757 5757 5756 5756 5755 5755 5755 5755 5755 5755 5755 5756 5756 5757 5757
5780 5779 5778 5777 5776 5775 5774 5774 5773 5772 5772 5771 5770 5770 5769 5768 5767 5766 5765 5764 5764 5763 5763 5762 5762 5761 5761 5760 5760 5759 5759 5759 5759 5758 5758 5758 5758 5758 5758 5758 5759 5759 5760 5760
5779 5779 5778 5777 5776 5775 5774 5774 5773 5772 5772 5771 5771 5770 5769 5769 5768 5767 5767 5766 5765 5765 5764 5764 5763 5763 5763 5762 5762 5761 5761 5761 5761 5761 5761 5761 5761 5761 5761 5761 5762 5762 5762 5763
5779 5778 5777 5776 5775 5775 5774 5773 5773 5772 5772 5771 5771 5771 5770 5770 5769 5768 5768 5767 5767 5766 5766 5765 5764 5764 5764 5763 5763 5763 5763 5763 5763 5763 5763 5763 5763 5763 5763 5764 5764 5764 5764 5764
5778 5777 5777 5776 5775 5774 5773 5773 5773 5772 5772 5772 5771 5771 5771 5770 5770 5769 5768 5768 5767 5767 5766 5766 5766 5765 5765 5765 5765 5765 5765 5765 5765 5765 5765 5765 5765 5765 5765 5765 5765 5765 5765 5766
5777 5777 5776 5775 5774 5774 5773 5773 5773 5772 5772 5772 5772 5771 5771 5770 5770 5769 5769 5769 5768 5767 5767 5767 5766 5766 5766 5766 5766 5765 5765 5765 5765 5766 5766 5766 5766 5766 5766 5766 5766 5766 5766 5766
5776 5776 5775 5774 5774 5773 5773 5773 5773 5772 5772 5772 5771 5771 5771 5770 5770 5769 5769 5768 5768 5767 5767 5767 5766 5766 5766 5766 5766 5766 5766 5766 5766 5766 5766 5766 5766 5766 5766 5766 5766 5766 5766 5766
5775 5774 5774 5774 5774 5773 5773 5773 5772 5772 5772 5772 5771 5771 5770 5770 5769 5769 5768 5768 5767 5767 5767 5766 5766 5765 5765 5765 5765 5765 5765 5765 5765 5765 5765 5765 5765 5765 5765 5765 5765 5765 5765 5764
5773 5773 5773 5773 5773 5773 5773 5772 5772 5771 5771 5771 5770 5770 5769 5769 5768 5767 5767 5767 5766 5766 5766 5765 5765 5764 5764 5764 5764 5764 5763 5763 5763 5763 5763 5763 5763 5763 5763 5763 5763 5762 5762 5761
5771 5771 5771 5771 5771 5771 5771 5771 5770 5770 5770 5769 5769 5768 5768 5767 5766 5766 5765 5765 5764 5764 5764 5763 5763 5762 5762 5762 5762 5761 5761 5761 5761 5760 5760 5760 5760 5759 5759 5759 5758 5758 5757 5757